US_Partners_Report 1

pictures.dealer.com

US_Partners_Report 1

11/7/2010 11/8/2010 ZZ792 Amanda Bent Bolt Company 1120 C.I.C. Drive Logan OH 43138 US

11/7/2010 11/8/2010 VC220 Emerson Network Power Systems America 1122 F Street Lorain OH 44052 US

11/7/2010 11/8/2010 VF272 Sears Carpet & Upholstery 8472 Cotter Street Louis Center OH 43035 US Jeff Guth

11/7/2010 11/8/2010 ZZ840 Jay Industries 150 E. Longview Ave MANSFIELD OH 44903 US

11/7/2010 11/8/2010 XE434 Scott's Company 14111 Scottslawn Road Marysville OH 43041 US

3/13/2011 11/8/2010 NH867 Luxottica Retail North America 4000 Luxottica Place MASON OH 45040 US Cindy Mitchell YouDecide 222-222-2222 222-222-2222 kevin.kannenberg@youdecide.com

12/13/2010 11/8/2010 WM625 Cengage Learning 5191 Natorp Blvd Mason OH 45040 US Victoria Hershberger Sr. Human Resources Coordinator 513-229-1461 victoria.hershberger@cengage.com

11/7/2010 11/8/2010 ZZ852 Makino, Inc. 7680 Innovation Way Mason OH 45040 US

11/7/2010 11/8/2010 NZ807 Spartan Chemical Company 1110 Spartan Drive MAUMEE OH 43537 US

11/7/2010 11/8/2010 N8284 Novelis 6060 Parkland Boulevard Mayfield Heights OH 44124 US

11/7/2010 11/8/2010 XU103 Progressive Insurance 5910 Landerbrook Box L 23A Mayfield Heights OH 44124 US

11/7/2010 11/8/2010 ZZ877 RPM International 2628 Pearl Road Medina OH 44256 US

11/7/2010 11/8/2010 ZZ847 LexisNexis 8891 Gander Creek Dr Miamisburg OH 45342 US

11/7/2010 11/8/2010 ZZ791 AK Steel Holding Corp. 703 Curtis Street MIDDLETOWN OH 45043 US

12/14/2010 11/8/2010 WF286 Usui International Corporation 1045 Reed Road Monroe OH 45050 US Patti Swillinger-Haas HR Manager 513-539-4591x5102 pattiswillinger@usui.co.jp

11/7/2010 11/8/2010 ZZ869 Powers & Sons LLC 1613 Magda Dr MONTPELIER OH 43543 US

11/7/2010 11/8/2010 ZZ801 Automatic Feed Co 476 E. Riverview Avenue Napoleon OH 43545 US

11/7/2010 11/8/2010 VG890 Tween Brands 8323 Walton Parkway NEW ALBANY OH 43054 US

11/7/2010 11/8/2010 NF128 Crown Equipment Corporation 44 S Washington Street NEW BREMEN OH 45869 US

11/7/2010 11/8/2010 ZZ798 ASC Industries, Inc 2100 International Parkway NORTH CANTON OH 44720 US

11/7/2010 11/8/2010 XU088 Diebold 5995 Mayfair Road North Canton OH 44720 US

11/7/2010 11/8/2010 ZZ848 Liberty Steel Products 11650 Mahoning Avenue North Jackson OH 44451 US

11/7/2010 11/8/2010 ZZ795 America's Body 3 Acorn Drive Oakwood Village OH 44146 US

11/7/2010 11/8/2010 ZZ794 American Motorcyclist Assocation 13515 Yarmouth Drive Pickerington OH 43147 US

12/30/2010 11/8/2010 ZZ860 OEConnection 4205 Highlander Parkway Richfield OH 44286 US Rebecca Littlejohn HR Coordinator 3305231605 3305231800 rebecca.littlejohn@oeconnection.com

3/18/2011 11/8/2010 WD594 Konecranes, Inc. 4401 Gateway Boulevard Springfield OH 45502 US RACHEL JOHNSON FLEET SPECIALIST 937-525-5514 937-525-5533 rachel.johnson@konecranes.com

11/7/2010 11/8/2010 ZZ843 Kaiser Permanente 17406 Royalton Road Strongsville OH 44136 US

11/7/2010 11/8/2010 ZZ888 Steere Enterprises 285 Comerce Street Tallmadge OH 44278 US

11/7/2010 11/8/2010 WA671 Webster Industries, Inc. 325 Hall Street Tiffin OH 44883 US

11/7/2010 11/8/2010 ZZ871 Process Equipment Company 6555 South State Route 202 Tipp City OH 45371 US

12/21/2010 11/8/2010 ZZ849 Lott Industries/Lucas County Board MRDD 3350 Hill Avenue Toledo OH 43607 US Jeff Holland Chief Financial Officer 419-536-5564 jholland@lucasdd.org

11/7/2010 11/8/2010 ZZ814 Dana Corporation 4500 Dorr Street Toledo OH 43615 US

11/7/2010 11/8/2010 ZZ856 New Mather Metals, Inc. 5270 N Detroit Avenue TOLEDO OH 43612 US

11/7/2010 11/8/2010 ZZ868 Pilkington N.A., Inc. 811 Madison Avenue Toledo OH 43697 US

11/7/2010 11/8/2010 ZZ884 SSOE, Inc. 1001 Madison Ave. TOLEDO OH 43604 US

11/7/2010 11/8/2010 ZZ895 Toledo Molding & Dye 1429 Coining Drive Toledo OH 43612 US

11/7/2010 11/8/2010 XA931 Owens Corning Corporation One Owens Corning Parkway Toledo OH 43659 US

11/7/2010 11/8/2010 XX132 ITW Food Equipment Group 701 Ridge Avenue Troy OH 45374 US

11/7/2010 11/8/2010 ZZ882 Shiloh Industries 880 Steel Drive Valley City OH 44280 US

11/7/2010 11/8/2010 ZZ844 Kendale Industries, Inc. 7600 Hub Parkway Valley View OH 44125 US

1/11/2011 11/8/2010 XY864 Rudolph/Libbe & GEM Inc. 6494 Latcha Road WALBRIDGE OH 43465 US Beth McCowin HR Assistant 1-419-725-3293 1-419-241-5000 beth.mccowin@rlcos.com

11/7/2010 11/8/2010 ZZ889 Stoneridge Company 9400 East Market Street Warren OH 44484 US

11/7/2010 11/8/2010 ZZ839 IDG 9407 Meridan Way West Chester OH 45069 US

11/7/2010 11/8/2010 WI072 Cable Express 374 Westdale Westerville OH 43082 US

11/7/2010 11/8/2010 ZZ822 Exel 500 Polaris Way Westerville OH 43082 US

11/7/2010 11/8/2010 XA972 Ohio Farmers Insurance Company One Park Circle Westfield Center OH 44251 US

12/7/2010 11/8/2010 ZZ845 Koyo Corporation of USA 29570 Clemens Road Westlake OH 44145 US Susan Mahony Corporate Human Resources Manager 4408351000 4408351010 smahony@koyousa.com

11/7/2010 11/8/2010 XG977 The Lubrizol Corp. 29400 Lakeland Boulevard Wickliffe OH 44092 US

11/7/2010 11/8/2010 ZZ850 Luk USA 3401 Old Airport Road Wooster OH 44691 US

11/7/2010 11/8/2010 BX671 Stahl 3201 West Old Lincoln Way Wooster OH 44691 US

11/7/2010 11/8/2010 ZZ824 Falcon Transport 650 North Meridian Road YOUNGSTOWN OH 44509 US

11/7/2010 11/8/2010 VN854 Conoco Phillips 317 Adams Building Bartlesville OK 74004 US

3/13/2011 3/4/2011 AE041 Auto Club of America 9411 North Georgia Oklahoma City OK 73120 US

11/7/2010 11/8/2010 XB832 American Fidelity Corporation 2000 Classen Center Oklahoma City OK 73125 US

11/7/2010 11/8/2010 NH774 SemCrude 11501 South I-44 Service Road Oklahoma City OK 73173 US

11/7/2010 11/8/2010 ZZ906 Dealers Auto Auction of OKC, Inc. 1028 S Portland Oklahoma City OK 73108 US

11/7/2010 11/8/2010 ZZ909 Postrock Energy 210 PARK AVENUE ste 2750 OKLAHOMA CITY OK 73102 US

11/7/2010 11/8/2010 WB123 Chesapeake Energy Corporation 6100 N. Western Avenue Oklahoma City OK 73154 US

11/7/2010 11/8/2010 XZ305 Devon Energy Corporation 20 North Broadway, Suite 1500 Oklahoma City OK 73102 US

11/7/2010 11/8/2010 WC436 Sandridge Energy 123 Robert S Kerr Ave OKLAHOMA CITY OK 73102 US

3/16/2011 11/18/2010 TEST1 TEST US PARTNER TEST ADDRESS TEST CITY OK 99999 US Key Contact name KC title 555-555-5555 555-555-5556 fake_email_@iassist.ca

12/7/2010 11/8/2010 BA092 Ramsey Winch/Auto Crane 4707 N Mingo Road Tulsa OK 74117 US Kerra Zavala HR Generalist 918-438-2760 918-234-2110 kerrazavala@ramseyindustries.com

12/29/2010 11/8/2010 XA872 Helmerich & Payne 1437 South Bolder Tulsa OK 74119 US Liz Shaddox Human Resources Assistant 918-588-5219 918-588-5700 liz.shaddox@hpinc.com

11/7/2010 11/8/2010 XB859 Hilti, Inc. 5400 South 122nd East Avenue Tulsa OK 74146 US

11/7/2010 11/8/2010 NH560 The Williams Company One Williams Center, MD 35-6 Tulsa OK 74172 US

11/7/2010 11/8/2010 NJ876 McJunkin Red Man Corporation 8023 E 63rd Pl., Ste 800 TULSA OK 74133 US

11/7/2010 11/8/2010 XD364 Flint Energy Services Inc 7633 E 63rd Place, Suite 500 Tulsa OK 74133 US

11/7/2010 11/8/2010 XW877 Blue Cross Blue Shield of OK 1215 S. Boulder Tulsa OK 74119 US

11/7/2010 11/8/2010 ZZ908 Newfield Exploration Inc One Williams Center, Suite 1900 TULSA OK 74172 US

11/7/2010 11/8/2010 XG587 QuikTrip Corporation 4705 South 129th East Avenue Tulsa OK 74134 US

11/7/2010 11/8/2010 DL204 Dollar Thrifty Automotive Group 5330 East 31st Street Tulsa OK 74135 US

12/5/2011 11/8/2010 XI723 FedEx Ground 1000 FedEx Drive Moon Township ON 15108 US Yuri Malinovski YouDecide 222-222-2222 222-222-2222 komarovka@yahoo.com

12/28/2010 12/28/2010 AE030 Reddaway Inc. 16277 SE130th Avenue Clackamas OR 97015 US John Smith (503) 722-3505

3/29/2011 11/8/2010 ZZ917 Warn Industries 12900 SE Capps Rd Clackamas OR 97015 US Trish Ehl Human Resources 503-722-1200 503-659-8750 ehlt@warn.com

11/7/2010 11/8/2010 HB852 The Pape Group, Inc. 355 Goodpasture Island Road Eugene OR 97401 US

11/7/2010 11/8/2010 XD999 Intel Corporation 5300 NE Elam Young Parkway Hillsboro OR 97124 US

11/7/2010 11/8/2010 ZZ912 Jeld-Wen, Inc. 3922 Lakeport Boulevard Klamath Falls OR 97601 US

2/28/2011 2/28/2011 WB230 Northwest Pump & Equipment Co. 2800 NW 31st Street Portland OR 97210 US Bob Matthews (503) 227-7867

11/7/2010 11/8/2010 ZZ127 Kinder Care 650 Northeast Holladay Suite 1400 Portland OR 97232 US David Lear

11/7/2010 11/8/2010 UH479 Pacificorp 825 Multnomah Portland OR 97232 US

11/7/2010 11/8/2010 ND179 Electrical Construction Company 2121 NW Thurman Portland OR 97210 US

11/7/2010 11/8/2010 ZZ910 Adidas 5055 N. Greeley Ave. Portland OR 97217 US

11/7/2010 11/8/2010 ZZ916 TRM Copy Centers, LLC 12441 NE Marx Street PORTLAND OR 97230 US

11/7/2010 11/8/2010 ZZ918 Williams Controls 14100 Southwest 72nd Avenue Portland OR 97223 US

11/7/2010 11/8/2010 ZZ914 Roseburg Forest Products Inc Old Highway 99 South ROSEBURG OR 97470 US

11/7/2010 11/8/2010 ZZ945 Pennsylvania Power & Light (PPL) Two North 9th Street Allentown PA 18101 US

11/7/2010 11/8/2010 XI979 Air Products & Chemicals, Inc. 7201 Hamilton Boulevard Allentown PA 18195 US

11/7/2010 11/8/2010 XM863 Sheetz Inc 5700 6th Ave Altoona PA 16602 US

11/7/2010 11/8/2010 ZZ934 Harmelin Media 525 Righters Ferry Road Bala Cynwyd. PA 19004 US

3/8/2011 11/8/2010 XG120 Giles & Ransome 2975 Galloway Road Bensalem PA 19020 US Lauren Hooven Sr. HR Generalist 215-245-3772 lhooven@ransome.com

11/7/2010 11/8/2010 AB556 Mod Space 1200 Swedesford Road BERWYN PA 19312 US

11/7/2010 11/8/2010 ZZ923 Buzzi Unicem 100 Brodhead Road BETHLEHEM PA 18017 US

11/7/2010 11/8/2010 XG864 Bethlehem Steel Corporation 1170 8th Avenue, Room 4585 Bethlehem PA 18016 US

11/7/2010 11/8/2010 ZZ928 CJ''s Tire & Automotive 91 Ben Franklin Hwy West Birdsboro PA 19508 US

10/24/2011 11/8/2010 HM001 Henkels & McCoy 985 Jolly Road Blue Bell PA 19422 US James Fiant Fleet Operations Manager 2152837953 jfiant@henkels.com

More magazines by this user
Similar magazines